Terug naar catalogus

YOUTHSAT

ActiefWetenschapSSO
NORAD 37388·PAYLOAD·🇮🇳 India

Gelanceerd Apr 20, 2011 vanaf Satish Dhawan Space Centre

Loading…

Volgende Passages (komende 24 uur)

TLE

VersSource: Space-Track

Epoch: Sep 14, 2026, 20:15 UTC

1 37388U 11015B   26257.84412350  .00000142  00000-0  77287-4 0  9998
2 37388  98.3800 227.9025 0015728  79.3691 305.3151 14.25660812800410

Volg YOUTHSAT in realtime met AllMySat

Download on the App Store